GEFSMW_prec_meanprecacc_336.txt.gz
Total_Precipitation_Accumulation
2.24 2.69 3.40 4.43 4.96 5.61 5.50 5.08 4.79 4.57 4.47 4.40 4.40 4.43 4.49 4.63 4.73 4.63 4.40 4.35 4.26 4.37 4.59 4.39 4.34 4.13 4.05 4.11 4.11 3.98 3.86 3.67 3.57 3.47 3.10 2.60 2.19 2.00 1.88 1.91 1.98 1.94 1.86
2.41 3.04 3.58 4.20 4.61 4.72 4.91 5.18 5.17 5.08 4.78 4.67 4.95 5.37 5.61 5.48 5.49 5.41 5.34 5.14 5.00 4.98 4.90 4.84 4.51 4.30 4.19 4.05 3.96 3.85 3.76 3.53 3.49 3.56 3.50 3.04 2.66 2.16 1.71 1.81 1.85 1.85 1.88
2.17 2.82 3.36 3.80 4.34 4.67 4.74 5.03 5.10 5.25 5.46 5.59 5.73 6.10 6.36 6.18 5.94 5.57 5.39 5.15 4.87 4.80 4.70 4.61 4.42 4.30 4.12 3.96 3.90 3.83 3.76 3.58 3.50 3.54 3.70 3.48 2.94 2.40 1.99 1.80 1.76 1.80 1.86
2.09 2.46 2.90 3.22 3.64 3.98 4.31 4.69 4.86 5.04 5.57 6.29 6.56 6.59 6.66 6.49 6.14 5.80 5.47 5.08 4.74 4.49 4.34 4.40 4.32 4.19 3.97 3.81 3.50 3.49 3.58 3.72 3.52 3.40 3.17 3.02 2.77 2.66 2.44 2.16 1.96 1.84 1.80
2.02 2.20 2.32 2.70 3.24 3.49 3.74 4.23 4.64 5.09 5.70 6.23 6.58 6.79 6.67 6.42 6.11 5.64 5.29 4.93 4.55 4.17 3.90 3.93 3.87 3.69 3.49 3.36 3.19 3.16 3.21 3.31 3.29 3.26 3.13 2.99 2.80 2.57 2.50 2.36 2.14 2.00 1.83
1.87 1.98 2.19 2.43 2.75 3.08 3.35 3.66 4.23 4.90 5.32 5.67 6.01 6.18 6.26 6.14 5.80 5.31 4.99 4.66 4.29 3.94 3.64 3.32 3.27 3.22 3.06 2.87 2.82 2.81 2.78 2.86 2.92 3.00 2.92 2.77 2.68 2.60 2.60 2.47 2.27 2.17 2.00
1.75 2.02 2.18 2.40 2.63 2.92 3.28 3.58 3.98 4.54 4.84 4.94 5.10 5.38 5.56 5.56 5.42 5.17 4.82 4.39 3.89 3.42 3.16 2.94 2.83 2.76 2.70 2.58 2.52 2.52 2.40 2.35 2.44 2.43 2.52 2.54 2.43 2.32 2.41 2.51 2.39 2.19 2.05
1.96 2.06 2.12 2.31 2.62 2.81 2.96 3.33 3.58 4.10 4.38 4.25 4.36 4.65 4.88 4.82 4.67 4.44 3.99 3.56 3.20 2.89 2.67 2.57 2.37 2.17 2.05 1.99 2.09 2.15 2.11 2.08 2.06 2.00 2.21 2.28 2.20 2.16 2.19 2.28 2.48 2.43 2.21
2.03 2.11 2.02 2.12 2.35 2.60 2.76 2.93 3.11 3.49 3.76 3.71 3.75 3.79 3.81 3.80 3.70 3.49 3.16 2.79 2.54 2.31 2.22 2.11 2.03 1.95 1.84 1.78 1.79 1.83 1.92 1.93 1.86 1.86 1.98 1.97 1.91 1.92 1.97 2.07 2.27 2.51 2.44
1.82 1.90 1.97 2.05 1.98 2.05 2.36 2.61 2.69 2.85 2.98 2.97 2.97 2.96 3.02 3.08 2.98 2.69 2.37 2.21 2.13 1.99 1.86 1.80 1.75 1.76 1.71 1.68 1.75 1.72 1.77 1.86 1.76 1.72 1.72 1.68 1.63 1.73 1.75 1.84 1.96 2.16 2.35
1.69 1.80 1.90 1.95 1.82 1.74 1.86 2.10 2.32 2.42 2.54 2.63 2.65 2.53 2.46 2.37 2.30 2.16 1.94 1.90 1.87 1.76 1.66 1.58 1.54 1.51 1.53 1.54 1.57 1.52 1.49 1.49 1.45 1.36 1.35 1.37 1.45 1.59 1.60 1.62 1.76 1.97 2.17
1.83 1.87 2.02 1.94 1.81 1.83 1.84 1.87 2.00 2.13 2.21 2.24 2.35 2.37 2.26 2.05 1.95 1.86 1.77 1.68 1.62 1.58 1.53 1.42 1.37 1.33 1.28 1.26 1.25 1.26 1.28 1.28 1.26 1.26 1.31 1.31 1.37 1.49 1.52 1.58 1.64 1.80 2.06
2.14 2.09 2.08 1.97 1.87 1.85 1.76 1.67 1.73 1.85 1.93 1.99 2.03 2.00 1.93 1.82 1.72 1.69 1.69 1.57 1.50 1.42 1.35 1.30 1.29 1.24 1.25 1.17 1.10 1.10 1.16 1.16 1.13 1.18 1.25 1.32 1.55 1.57 1.55 1.59 1.62 1.72 1.85
2.31 2.23 2.16 2.11 2.02 1.93 1.77 1.65 1.63 1.60 1.56 1.65 1.77 1.78 1.74 1.69 1.61 1.50 1.48 1.45 1.42 1.36 1.31 1.28 1.20 1.16 1.16 1.16 1.11 1.08 1.12 1.14 1.12 1.17 1.25 1.33 1.50 1.59 1.65 1.63 1.69 1.75 1.91
2.40 2.33 2.35 2.26 2.23 2.19 2.02 1.88 1.75 1.64 1.57 1.55 1.51 1.59 1.69 1.68 1.61 1.54 1.49 1.44 1.36 1.26 1.26 1.24 1.18 1.17 1.14 1.07 1.08 1.07 1.09 1.17 1.18 1.13 1.14 1.20 1.30 1.42 1.43 1.33 1.45 1.64 1.90
2.43 2.48 2.59 2.54 2.49 2.44 2.24 2.07 1.92 1.70 1.57 1.55 1.52 1.55 1.61 1.60 1.54 1.50 1.45 1.40 1.35 1.33 1.30 1.25 1.19 1.13 0.91 1.00 1.04 1.03 1.10 1.16 1.16 1.14 1.13 1.08 1.05 1.03 1.03 1.08 1.16 1.34 1.63
2.72 2.76 2.71 2.69 2.61 2.54 2.53 2.45 2.19 1.93 1.81 1.69 1.58 1.56 1.53 1.48 1.44 1.32 1.30 1.37 1.38 1.35 1.27 1.22 1.20 1.14 1.01 1.00 0.95 0.98 1.10 1.20 1.26 1.30 1.27 1.00 0.86 0.97 0.99 1.04 1.10 1.22 1.40
2.61 2.68 2.63 2.64 2.58 2.49 2.45 2.41 2.31 2.10 1.84 1.72 1.57 1.47 1.47 1.44 1.44 1.40 1.36 1.40 1.42 1.35 1.33 1.29 1.26 1.24 1.10 1.02 0.94 0.98 1.04 1.18 1.20 1.20 1.22 1.21 1.11 1.03 1.11 1.17 1.24 1.34 1.45
2.46 2.53 2.62 2.65 2.63 2.52 2.33 2.21 2.16 2.07 1.95 1.74 1.52 1.39 1.39 1.36 1.36 1.37 1.37 1.39 1.39 1.33 1.28 1.26 1.28 1.34 1.27 1.11 0.99 0.92 0.94 1.07 1.10 1.06 1.04 1.01 1.05 1.15 1.31 1.41 1.62 1.72 1.81
2.41 2.52 2.63 2.70 2.68 2.61 2.28 2.12 2.00 1.87 1.72 1.52 1.38 1.32 1.32 1.27 1.24 1.29 1.34 1.36 1.37 1.32 1.27 1.25 1.29 1.28 1.18 1.01 0.86 0.82 0.83 0.98 1.04 1.10 1.07 0.96 0.91 1.06 1.24 1.46 1.79 1.94 2.01
2.38 2.47 2.50 2.52 2.47 2.45 2.21 2.08 1.88 1.71 1.44 1.25 1.22 1.25 1.23 1.17 1.12 1.17 1.22 1.29 1.27 1.28 1.28 1.20 1.18 1.11 0.97 0.90 0.78 0.75 0.75 0.86 1.00 1.06 1.10 1.05 0.97 1.02 1.26 1.48 1.70 1.86 1.90
2.22 2.31 2.35 2.32 2.21 2.11 2.03 1.92 1.74 1.47 1.27 1.15 1.12 1.19 1.23 1.04 0.93 1.04 1.05 1.09 1.25 1.22 1.20 1.22 1.12 0.98 0.91 0.79 0.72 0.70 0.68 0.72 0.92 1.11 1.10 1.12 1.10 1.12 1.32 1.47 1.71 1.92 1.99
1.97 2.03 1.93 1.83 1.83 1.78 1.74 1.67 1.50 1.29 1.17 1.15 1.19 1.19 1.17 1.10 1.05 1.07 1.04 1.07 1.17 1.18 1.10 1.10 1.04 0.90 0.88 0.80 0.73 0.72 0.74 0.77 0.87 1.05 1.12 1.13 1.12 1.21 1.47 1.65 1.84 2.02 2.11
1.61 1.68 1.65 1.59 1.55 1.49 1.42 1.35 1.22 1.19 1.18 1.18 1.21 1.25 1.21 1.10 1.06 1.12 1.03 1.02 1.02 1.06 1.03 0.99 0.99 0.94 0.89 0.79 0.72 0.75 0.80 0.83 0.86 0.96 1.12 1.21 1.24 1.37 1.65 1.85 2.04 2.13 2.08
1.33 1.35 1.45 1.47 1.36 1.26 1.21 1.15 1.06 1.06 1.19 1.24 1.19 1.18 1.09 1.07 1.10 1.04 0.91 0.85 0.81 0.85 0.92 0.92 0.90 0.88 0.83 0.77 0.78 0.75 0.72 0.75 0.78 0.90 1.09 1.25 1.36 1.52 1.72 1.91 1.98 1.98 1.90
1.19 1.26 1.32 1.29 1.24 1.17 1.09 1.03 0.96 0.98 1.11 1.19 1.16 1.08 1.01 0.99 0.96 0.99 0.92 0.83 0.77 0.76 0.74 0.78 0.74 0.71 0.77 0.78 0.76 0.72 0.73 0.75 0.80 0.88 1.10 1.27 1.37 1.52 1.70 1.85 1.86 1.80 1.72

GEFSMW_prec_meanprecacc_342.txt.gz
Total_Precipitation_Accumulation
2.32 2.75 3.46 4.48 5.01 5.66 5.53 5.10 4.81 4.60 4.54 4.48 4.47 4.45 4.52 4.67 4.77 4.67 4.45 4.40 4.31 4.43 4.67 4.47 4.41 4.18 4.10 4.15 4.14 4.00 3.89 3.71 3.60 3.49 3.12 2.62 2.21 2.01 1.89 1.92 2.00 1.97 1.89
2.51 3.16 3.69 4.30 4.69 4.81 4.98 5.22 5.19 5.11 4.84 4.76 5.02 5.41 5.64 5.51 5.52 5.44 5.39 5.21 5.05 5.03 4.96 4.92 4.57 4.36 4.24 4.09 3.99 3.89 3.79 3.56 3.52 3.58 3.51 3.05 2.67 2.17 1.73 1.84 1.88 1.87 1.90
2.22 2.91 3.44 3.87 4.40 4.74 4.81 5.09 5.15 5.31 5.54 5.70 5.80 6.13 6.39 6.21 5.98 5.61 5.43 5.19 4.93 4.87 4.76 4.68 4.47 4.34 4.14 3.98 3.93 3.86 3.79 3.61 3.53 3.56 3.72 3.49 2.95 2.41 2.01 1.83 1.80 1.83 1.87
2.12 2.49 2.94 3.25 3.66 4.01 4.34 4.74 4.92 5.10 5.66 6.38 6.62 6.63 6.70 6.53 6.17 5.83 5.49 5.14 4.84 4.58 4.40 4.44 4.36 4.22 3.98 3.82 3.52 3.52 3.61 3.75 3.54 3.41 3.19 3.03 2.78 2.66 2.44 2.17 1.99 1.86 1.81
2.04 2.22 2.35 2.72 3.26 3.51 3.77 4.28 4.70 5.15 5.77 6.31 6.66 6.85 6.73 6.46 6.14 5.67 5.31 4.97 4.61 4.24 3.96 3.97 3.91 3.72 3.51 3.39 3.21 3.18 3.24 3.33 3.31 3.28 3.14 3.01 2.81 2.57 2.50 2.37 2.15 2.02 1.85
1.89 2.01 2.21 2.45 2.77 3.11 3.40 3.72 4.29 4.96 5.39 5.75 6.10 6.25 6.32 6.19 5.86 5.36 5.04 4.70 4.35 4.01 3.70 3.37 3.32 3.27 3.11 2.92 2.86 2.84 2.81 2.89 2.95 3.02 2.93 2.80 2.71 2.61 2.61 2.47 2.28 2.18 2.02
1.77 2.05 2.21 2.43 2.67 2.96 3.32 3.65 4.04 4.58 4.89 4.99 5.16 5.44 5.61 5.61 5.47 5.22 4.87 4.44 3.96 3.50 3.23 2.99 2.88 2.82 2.76 2.64 2.56 2.56 2.44 2.38 2.46 2.45 2.55 2.57 2.45 2.34 2.43 2.52 2.40 2.20 2.07
1.99 2.09 2.15 2.34 2.65 2.84 3.00 3.38 3.62 4.13 4.41 4.30 4.40 4.69 4.92 4.87 4.71 4.48 4.02 3.59 3.23 2.95 2.73 2.63 2.41 2.21 2.09 2.04 2.14 2.19 2.14 2.10 2.08 2.02 2.23 2.31 2.23 2.19 2.22 2.30 2.49 2.44 2.22
2.05 2.13 2.04 2.14 2.37 2.62 2.80 2.97 3.15 3.52 3.79 3.76 3.80 3.84 3.85 3.83 3.73 3.52 3.18 2.81 2.56 2.34 2.27 2.16 2.09 1.99 1.88 1.83 1.84 1.88 1.96 1.96 1.88 1.88 2.00 2.00 1.94 1.95 1.99 2.10 2.29 2.53 2.45
1.83 1.92 1.98 2.07 1.99 2.07 2.38 2.63 2.71 2.87 3.02 3.02 3.02 3.00 3.06 3.11 3.01 2.73 2.39 2.23 2.16 2.02 1.90 1.83 1.80 1.81 1.76 1.73 1.80 1.76 1.81 1.89 1.79 1.75 1.73 1.69 1.65 1.77 1.78 1.87 1.99 2.18 2.37
1.71 1.82 1.92 1.97 1.85 1.77 1.88 2.12 2.35 2.46 2.59 2.68 2.71 2.58 2.51 2.42 2.35 2.21 1.98 1.94 1.90 1.79 1.68 1.61 1.57 1.55 1.58 1.59 1.62 1.56 1.52 1.51 1.47 1.39 1.36 1.38 1.47 1.62 1.63 1.66 1.79 2.00 2.20
1.87 1.91 2.08 2.01 1.87 1.88 1.89 1.91 2.03 2.17 2.27 2.34 2.43 2.46 2.34 2.12 2.01 1.91 1.81 1.71 1.64 1.60 1.56 1.45 1.41 1.38 1.32 1.30 1.28 1.29 1.31 1.30 1.28 1.28 1.32 1.32 1.39 1.52 1.55 1.62 1.68 1.84 2.09
2.20 2.16 2.20 2.12 1.99 1.93 1.82 1.72 1.79 1.91 2.00 2.11 2.14 2.09 2.02 1.89 1.78 1.75 1.73 1.60 1.52 1.45 1.39 1.35 1.32 1.28 1.28 1.19 1.12 1.13 1.20 1.18 1.15 1.20 1.27 1.34 1.56 1.59 1.57 1.63 1.67 1.76 1.89
2.36 2.31 2.29 2.26 2.16 2.04 1.86 1.72 1.69 1.67 1.63 1.75 1.86 1.85 1.81 1.76 1.67 1.56 1.52 1.49 1.46 1.40 1.35 1.34 1.25 1.20 1.19 1.18 1.13 1.10 1.15 1.16 1.14 1.19 1.26 1.34 1.52 1.60 1.67 1.66 1.72 1.78 1.93
2.45 2.40 2.44 2.37 2.33 2.29 2.13 1.98 1.82 1.68 1.62 1.59 1.56 1.64 1.75 1.74 1.67 1.59 1.52 1.48 1.39 1.28 1.29 1.28 1.22 1.20 1.17 1.10 1.10 1.09 1.12 1.19 1.20 1.14 1.15 1.21 1.31 1.44 1.44 1.35 1.47 1.68 1.93
2.49 2.54 2.68 2.63 2.57 2.53 2.35 2.19 2.02 1.76 1.62 1.59 1.56 1.59 1.66 1.65 1.58 1.54 1.47 1.42 1.37 1.34 1.31 1.27 1.22 1.15 0.93 1.02 1.06 1.05 1.12 1.19 1.18 1.14 1.13 1.09 1.06 1.04 1.05 1.10 1.18 1.37 1.66
2.78 2.82 2.76 2.74 2.68 2.60 2.61 2.60 2.32 2.01 1.86 1.73 1.61 1.59 1.56 1.51 1.47 1.36 1.33 1.39 1.41 1.37 1.29 1.23 1.22 1.15 1.03 1.02 0.97 1.00 1.11 1.22 1.28 1.32 1.28 1.00 0.86 0.98 1.00 1.05 1.12 1.25 1.43
2.65 2.72 2.66 2.67 2.63 2.54 2.51 2.51 2.42 2.18 1.89 1.76 1.61 1.51 1.50 1.46 1.46 1.43 1.39 1.43 1.45 1.38 1.35 1.31 1.27 1.26 1.11 1.03 0.95 1.00 1.06 1.20 1.22 1.22 1.24 1.23 1.12 1.04 1.12 1.18 1.25 1.35 1.47
2.49 2.56 2.66 2.69 2.68 2.57 2.39 2.31 2.22 2.13 2.00 1.77 1.55 1.42 1.43 1.40 1.39 1.40 1.40 1.41 1.42 1.35 1.30 1.28 1.30 1.35 1.27 1.12 1.00 0.93 0.95 1.08 1.11 1.08 1.07 1.04 1.07 1.17 1.33 1.43 1.63 1.73 1.82
2.45 2.55 2.66 2.73 2.71 2.65 2.33 2.18 2.07 1.93 1.77 1.55 1.41 1.35 1.37 1.31 1.27 1.32 1.36 1.39 1.40 1.34 1.30 1.27 1.31 1.29 1.19 1.02 0.87 0.84 0.84 0.99 1.05 1.12 1.09 0.98 0.93 1.09 1.27 1.48 1.80 1.95 2.02
2.41 2.50 2.53 2.56 2.51 2.49 2.26 2.13 1.94 1.79 1.50 1.28 1.25 1.29 1.29 1.23 1.17 1.21 1.25 1.32 1.30 1.30 1.31 1.22 1.21 1.14 1.00 0.91 0.80 0.77 0.77 0.88 1.02 1.07 1.11 1.07 0.99 1.05 1.28 1.50 1.71 1.87 1.93
2.25 2.33 2.38 2.36 2.25 2.16 2.08 1.96 1.79 1.52 1.33 1.21 1.18 1.25 1.31 1.14 1.03 1.11 1.10 1.14 1.29 1.25 1.23 1.24 1.14 1.00 0.94 0.81 0.74 0.73 0.71 0.76 0.96 1.14 1.12 1.14 1.13 1.15 1.35 1.49 1.73 1.94 2.02
2.01 2.06 1.98 1.87 1.88 1.83 1.79 1.72 1.54 1.33 1.21 1.23 1.29 1.29 1.26 1.19 1.15 1.15 1.10 1.14 1.22 1.22 1.14 1.13 1.06 0.93 0.90 0.82 0.75 0.74 0.77 0.81 0.90 1.07 1.15 1.16 1.16 1.25 1.51 1.68 1.87 2.05 2.14
1.65 1.73 1.71 1.64 1.60 1.53 1.46 1.40 1.27 1.23 1.22 1.25 1.33 1.41 1.31 1.17 1.16 1.19 1.08 1.07 1.08 1.10 1.07 1.04 1.03 0.97 0.92 0.82 0.75 0.78 0.83 0.88 0.90 1.00 1.16 1.27 1.31 1.42 1.69 1.90 2.09 2.17 2.11
1.36 1.39 1.51 1.53 1.40 1.29 1.25 1.20 1.11 1.11 1.24 1.29 1.25 1.29 1.21 1.17 1.18 1.14 0.99 0.92 0.87 0.92 1.00 1.00 0.99 0.97 0.91 0.84 0.85 0.81 0.78 0.80 0.82 0.93 1.11 1.29 1.42 1.57 1.76 1.95 2.01 2.01 1.93
1.23 1.29 1.36 1.33 1.26 1.18 1.12 1.06 0.99 1.02 1.17 1.24 1.20 1.12 1.08 1.09 1.05 1.10 1.05 0.95 0.89 0.87 0.83 0.86 0.82 0.78 0.84 0.84 0.80 0.76 0.77 0.79 0.85 0.92 1.14 1.31 1.40 1.57 1.75 1.90 1.90 1.83 1.74

GEFSMW_prec_meanprecacc_348.txt.gz
Total_Precipitation_Accumulation
2.33 2.77 3.49 4.50 5.05 5.73 5.60 5.15 4.84 4.64 4.59 4.54 4.55 4.51 4.58 4.72 4.82 4.71 4.51 4.47 4.36 4.48 4.76 4.56 4.50 4.26 4.17 4.23 4.22 4.06 3.95 3.76 3.65 3.55 3.18 2.66 2.23 2.03 1.91 1.93 2.00 1.99 1.93
2.52 3.18 3.75 4.35 4.75 4.90 5.06 5.29 5.24 5.16 4.89 4.84 5.10 5.46 5.69 5.55 5.57 5.49 5.46 5.28 5.11 5.09 5.09 5.01 4.65 4.43 4.31 4.16 4.05 3.94 3.84 3.60 3.56 3.64 3.58 3.11 2.71 2.20 1.75 1.85 1.89 1.90 1.94
2.23 2.93 3.48 3.91 4.44 4.79 4.87 5.14 5.19 5.35 5.61 5.79 5.86 6.17 6.44 6.26 6.03 5.66 5.50 5.25 4.97 4.92 4.87 4.77 4.54 4.41 4.20 4.04 3.99 3.91 3.83 3.65 3.56 3.59 3.77 3.56 3.01 2.46 2.03 1.85 1.82 1.86 1.92
2.12 2.50 2.97 3.28 3.70 4.04 4.37 4.77 4.95 5.13 5.69 6.43 6.66 6.67 6.75 6.57 6.21 5.88 5.56 5.23 4.89 4.62 4.47 4.52 4.42 4.27 4.03 3.88 3.58 3.56 3.66 3.81 3.60 3.46 3.22 3.06 2.81 2.71 2.50 2.21 2.01 1.89 1.85
2.04 2.22 2.36 2.74 3.29 3.54 3.79 4.31 4.72 5.17 5.81 6.34 6.68 6.88 6.76 6.50 6.17 5.71 5.36 5.05 4.67 4.27 4.00 4.04 3.97 3.78 3.57 3.44 3.26 3.23 3.30 3.38 3.36 3.33 3.18 3.04 2.84 2.61 2.56 2.43 2.20 2.06 1.88
1.89 2.01 2.22 2.46 2.79 3.12 3.42 3.77 4.33 5.00 5.43 5.79 6.13 6.29 6.35 6.23 5.89 5.40 5.07 4.75 4.41 4.06 3.74 3.40 3.37 3.32 3.16 2.97 2.91 2.89 2.87 2.94 3.00 3.07 2.97 2.83 2.75 2.66 2.65 2.52 2.33 2.23 2.05
1.78 2.06 2.23 2.45 2.69 2.98 3.35 3.71 4.10 4.63 4.93 5.03 5.20 5.49 5.67 5.66 5.51 5.26 4.91 4.49 4.02 3.56 3.28 3.03 2.93 2.85 2.80 2.69 2.60 2.60 2.49 2.43 2.51 2.51 2.59 2.61 2.50 2.39 2.48 2.57 2.45 2.24 2.11
2.00 2.10 2.16 2.36 2.68 2.88 3.06 3.44 3.67 4.17 4.45 4.33 4.43 4.74 4.96 4.91 4.76 4.51 4.06 3.64 3.29 3.01 2.77 2.66 2.45 2.25 2.14 2.07 2.18 2.24 2.19 2.14 2.13 2.05 2.28 2.36 2.27 2.25 2.27 2.34 2.54 2.49 2.27
2.07 2.14 2.06 2.16 2.39 2.66 2.85 3.02 3.18 3.55 3.81 3.79 3.83 3.87 3.88 3.87 3.77 3.55 3.20 2.84 2.60 2.38 2.30 2.18 2.12 2.03 1.91 1.86 1.87 1.91 2.00 2.00 1.92 1.92 2.05 2.04 1.98 2.00 2.04 2.14 2.32 2.58 2.52
1.84 1.94 2.01 2.10 2.02 2.11 2.42 2.66 2.72 2.88 3.03 3.03 3.03 3.02 3.08 3.13 3.03 2.75 2.42 2.26 2.19 2.06 1.92 1.85 1.82 1.83 1.78 1.75 1.82 1.80 1.85 1.92 1.82 1.78 1.77 1.74 1.70 1.81 1.82 1.91 2.03 2.22 2.43
1.72 1.85 1.96 2.01 1.89 1.81 1.92 2.14 2.36 2.47 2.59 2.69 2.73 2.60 2.54 2.45 2.38 2.23 2.01 1.97 1.95 1.83 1.72 1.64 1.59 1.57 1.60 1.60 1.64 1.59 1.55 1.55 1.51 1.42 1.39 1.42 1.51 1.67 1.68 1.70 1.83 2.04 2.25
1.88 1.93 2.10 2.05 1.93 1.97 1.96 1.95 2.05 2.18 2.28 2.35 2.45 2.47 2.37 2.15 2.04 1.94 1.84 1.74 1.68 1.64 1.61 1.49 1.44 1.40 1.35 1.32 1.30 1.31 1.33 1.34 1.32 1.32 1.36 1.35 1.42 1.55 1.60 1.67 1.73 1.88 2.14
2.21 2.18 2.23 2.15 2.05 2.03 1.91 1.76 1.81 1.92 2.02 2.13 2.15 2.11 2.04 1.92 1.81 1.78 1.77 1.65 1.57 1.49 1.43 1.41 1.37 1.31 1.32 1.23 1.14 1.14 1.22 1.21 1.18 1.24 1.30 1.37 1.60 1.62 1.61 1.68 1.72 1.81 1.92
2.38 2.33 2.32 2.30 2.20 2.09 1.91 1.76 1.71 1.68 1.64 1.76 1.88 1.88 1.85 1.81 1.72 1.62 1.59 1.55 1.52 1.45 1.39 1.39 1.31 1.26 1.23 1.21 1.16 1.12 1.17 1.19 1.17 1.21 1.29 1.38 1.55 1.65 1.73 1.70 1.79 1.85 1.98
2.48 2.42 2.48 2.42 2.38 2.33 2.17 2.02 1.85 1.70 1.63 1.61 1.58 1.66 1.78 1.79 1.73 1.66 1.62 1.58 1.48 1.37 1.37 1.36 1.27 1.24 1.20 1.13 1.13 1.12 1.15 1.23 1.24 1.19 1.19 1.23 1.35 1.47 1.48 1.38 1.52 1.72 1.98
2.51 2.56 2.70 2.66 2.60 2.56 2.38 2.21 2.04 1.78 1.63 1.60 1.57 1.60 1.67 1.67 1.62 1.59 1.54 1.49 1.43 1.42 1.40 1.37 1.29 1.20 0.95 1.05 1.08 1.08 1.15 1.22 1.22 1.19 1.18 1.12 1.09 1.05 1.06 1.11 1.19 1.39 1.69
2.80 2.84 2.78 2.76 2.70 2.62 2.63 2.61 2.34 2.02 1.87 1.75 1.62 1.60 1.57 1.52 1.49 1.39 1.36 1.43 1.44 1.41 1.34 1.29 1.27 1.19 1.05 1.04 0.98 1.02 1.13 1.25 1.32 1.36 1.33 1.03 0.87 1.00 1.01 1.06 1.13 1.25 1.44
2.68 2.74 2.68 2.70 2.66 2.57 2.54 2.53 2.43 2.19 1.90 1.77 1.63 1.52 1.51 1.47 1.47 1.44 1.41 1.45 1.48 1.40 1.39 1.35 1.31 1.29 1.14 1.05 0.96 1.01 1.07 1.23 1.25 1.25 1.28 1.25 1.13 1.06 1.14 1.21 1.27 1.37 1.49
2.51 2.58 2.68 2.71 2.70 2.60 2.41 2.32 2.24 2.14 2.01 1.78 1.56 1.43 1.43 1.41 1.40 1.41 1.41 1.44 1.45 1.38 1.33 1.31 1.34 1.39 1.31 1.15 1.01 0.94 0.96 1.09 1.13 1.10 1.08 1.06 1.10 1.19 1.36 1.47 1.66 1.75 1.84
2.48 2.59 2.70 2.76 2.74 2.69 2.37 2.21 2.09 1.95 1.78 1.56 1.41 1.36 1.37 1.32 1.28 1.34 1.38 1.41 1.42 1.38 1.34 1.30 1.33 1.32 1.22 1.05 0.89 0.85 0.85 1.00 1.07 1.14 1.11 1.00 0.95 1.11 1.29 1.50 1.83 1.97 2.03
2.43 2.52 2.55 2.58 2.54 2.53 2.30 2.17 1.96 1.80 1.51 1.29 1.25 1.29 1.29 1.24 1.18 1.23 1.28 1.35 1.33 1.34 1.35 1.27 1.24 1.16 1.02 0.94 0.82 0.78 0.78 0.90 1.03 1.09 1.13 1.08 1.00 1.07 1.30 1.52 1.73 1.89 1.96
2.26 2.35 2.39 2.37 2.27 2.19 2.11 1.99 1.82 1.54 1.35 1.22 1.19 1.25 1.32 1.16 1.06 1.14 1.13 1.17 1.33 1.29 1.27 1.28 1.18 1.03 0.96 0.83 0.76 0.74 0.72 0.77 0.97 1.15 1.15 1.17 1.16 1.18 1.36 1.50 1.74 1.96 2.06
2.02 2.08 1.99 1.88 1.89 1.85 1.81 1.73 1.56 1.35 1.24 1.26 1.30 1.30 1.28 1.22 1.19 1.20 1.15 1.17 1.27 1.27 1.19 1.17 1.10 0.96 0.92 0.84 0.78 0.77 0.79 0.82 0.92 1.09 1.17 1.19 1.19 1.28 1.53 1.70 1.89 2.07 2.16
1.66 1.74 1.72 1.64 1.61 1.55 1.47 1.41 1.28 1.24 1.24 1.27 1.35 1.43 1.33 1.19 1.19 1.25 1.13 1.13 1.13 1.15 1.12 1.10 1.08 1.01 0.95 0.85 0.78 0.81 0.87 0.91 0.93 1.01 1.18 1.29 1.33 1.45 1.72 1.93 2.12 2.20 2.14
1.38 1.41 1.52 1.54 1.41 1.31 1.27 1.21 1.12 1.13 1.26 1.32 1.28 1.32 1.25 1.20 1.22 1.20 1.07 0.99 0.94 0.99 1.06 1.05 1.06 1.03 0.95 0.89 0.91 0.86 0.82 0.84 0.86 0.96 1.13 1.30 1.43 1.59 1.79 1.97 2.05 2.05 1.97
1.25 1.31 1.37 1.34 1.27 1.19 1.13 1.07 0.99 1.03 1.19 1.27 1.23 1.16 1.12 1.13 1.10 1.15 1.12 1.05 0.98 0.93 0.89 0.91 0.86 0.83 0.87 0.87 0.85 0.81 0.81 0.82 0.88 0.95 1.16 1.32 1.41 1.58 1.77 1.92 1.94 1.88 1.78

GEFSMW_prec_meanprecacc_354.txt.gz
Total_Precipitation_Accumulation
2.34 2.78 3.49 4.54 5.09 5.75 5.62 5.18 4.89 4.69 4.66 4.64 4.63 4.59 4.65 4.78 4.88 4.77 4.55 4.51 4.40 4.54 4.83 4.66 4.60 4.36 4.27 4.32 4.31 4.16 4.05 3.84 3.71 3.60 3.24 2.71 2.27 2.06 1.94 1.96 2.03 2.02 1.96
2.53 3.19 3.76 4.36 4.80 4.95 5.08 5.30 5.27 5.20 4.95 4.94 5.20 5.55 5.76 5.62 5.63 5.57 5.54 5.34 5.15 5.15 5.16 5.11 4.74 4.51 4.38 4.23 4.13 4.03 3.94 3.68 3.61 3.72 3.71 3.22 2.82 2.27 1.78 1.88 1.91 1.92 1.98
2.24 2.93 3.48 3.92 4.46 4.83 4.89 5.17 5.23 5.39 5.67 5.87 5.95 6.25 6.51 6.32 6.10 5.74 5.58 5.33 5.03 4.98 4.93 4.86 4.63 4.49 4.27 4.12 4.07 3.98 3.93 3.73 3.61 3.65 3.87 3.69 3.14 2.56 2.11 1.89 1.85 1.88 1.95
2.15 2.50 2.97 3.29 3.71 4.06 4.38 4.79 4.98 5.17 5.74 6.49 6.73 6.74 6.81 6.64 6.28 5.95 5.64 5.32 4.96 4.66 4.53 4.59 4.52 4.37 4.14 3.98 3.66 3.64 3.75 3.89 3.68 3.52 3.28 3.13 2.89 2.83 2.63 2.30 2.06 1.93 1.90
2.05 2.23 2.36 2.75 3.29 3.55 3.81 4.33 4.76 5.21 5.85 6.38 6.73 6.94 6.82 6.55 6.23 5.77 5.43 5.13 4.74 4.33 4.06 4.11 4.05 3.87 3.68 3.54 3.34 3.33 3.37 3.46 3.44 3.39 3.24 3.11 2.90 2.68 2.67 2.55 2.29 2.14 1.94
1.90 2.02 2.23 2.47 2.80 3.13 3.43 3.79 4.37 5.04 5.47 5.83 6.16 6.33 6.41 6.29 5.96 5.48 5.15 4.82 4.47 4.11 3.78 3.46 3.43 3.39 3.25 3.06 2.99 2.97 2.94 3.02 3.08 3.14 3.03 2.92 2.85 2.74 2.74 2.64 2.44 2.32 2.12
1.79 2.08 2.25 2.46 2.70 3.00 3.37 3.74 4.15 4.70 5.00 5.08 5.24 5.53 5.71 5.71 5.56 5.33 4.99 4.56 4.08 3.61 3.33 3.08 2.98 2.92 2.88 2.77 2.67 2.68 2.56 2.51 2.60 2.59 2.67 2.68 2.56 2.45 2.56 2.67 2.56 2.33 2.18
2.02 2.14 2.20 2.38 2.70 2.91 3.09 3.48 3.71 4.22 4.50 4.38 4.47 4.77 5.01 4.95 4.81 4.58 4.11 3.68 3.34 3.06 2.82 2.69 2.48 2.29 2.19 2.13 2.24 2.31 2.27 2.23 2.20 2.12 2.36 2.43 2.32 2.30 2.34 2.42 2.64 2.62 2.38
2.09 2.18 2.10 2.20 2.43 2.69 2.88 3.06 3.23 3.59 3.85 3.83 3.87 3.90 3.91 3.91 3.83 3.60 3.24 2.88 2.65 2.42 2.33 2.22 2.16 2.07 1.96 1.90 1.91 1.97 2.06 2.06 1.98 1.98 2.11 2.10 2.03 2.06 2.10 2.22 2.41 2.70 2.65
1.85 1.96 2.04 2.14 2.06 2.14 2.44 2.68 2.75 2.91 3.06 3.06 3.06 3.06 3.13 3.18 3.09 2.81 2.45 2.30 2.24 2.11 1.98 1.92 1.87 1.87 1.82 1.80 1.86 1.84 1.90 1.97 1.87 1.85 1.84 1.81 1.76 1.87 1.87 1.98 2.10 2.30 2.54
1.73 1.86 1.98 2.04 1.91 1.83 1.93 2.16 2.38 2.49 2.62 2.71 2.75 2.64 2.60 2.51 2.44 2.29 2.05 2.01 2.00 1.89 1.79 1.71 1.66 1.62 1.64 1.65 1.69 1.63 1.58 1.57 1.56 1.47 1.45 1.49 1.59 1.75 1.74 1.75 1.89 2.10 2.34
1.89 1.94 2.11 2.06 1.95 1.98 1.97 1.96 2.07 2.19 2.30 2.37 2.48 2.51 2.42 2.20 2.10 2.01 1.90 1.79 1.72 1.68 1.66 1.55 1.49 1.45 1.40 1.37 1.33 1.33 1.35 1.36 1.35 1.35 1.41 1.41 1.49 1.64 1.68 1.73 1.78 1.94 2.21
2.22 2.19 2.23 2.16 2.06 2.04 1.92 1.78 1.83 1.95 2.04 2.15 2.19 2.15 2.09 1.96 1.85 1.84 1.84 1.71 1.61 1.53 1.49 1.46 1.42 1.36 1.38 1.29 1.18 1.17 1.24 1.22 1.20 1.27 1.34 1.42 1.67 1.70 1.69 1.75 1.79 1.86 1.96
2.39 2.34 2.32 2.30 2.21 2.11 1.93 1.79 1.75 1.72 1.68 1.79 1.91 1.91 1.89 1.85 1.76 1.66 1.64 1.61 1.56 1.49 1.44 1.45 1.37 1.32 1.30 1.28 1.22 1.18 1.22 1.23 1.20 1.24 1.32 1.42 1.62 1.73 1.82 1.77 1.87 1.92 2.06
2.48 2.43 2.49 2.43 2.39 2.35 2.20 2.06 1.90 1.76 1.68 1.65 1.62 1.70 1.82 1.83 1.77 1.70 1.66 1.61 1.53 1.41 1.41 1.41 1.32 1.31 1.28 1.21 1.21 1.20 1.22 1.30 1.31 1.25 1.24 1.28 1.40 1.54 1.54 1.42 1.57 1.78 2.05
2.51 2.57 2.71 2.67 2.62 2.57 2.39 2.23 2.06 1.80 1.65 1.62 1.59 1.63 1.70 1.70 1.65 1.62 1.58 1.53 1.48 1.48 1.46 1.44 1.38 1.31 1.06 1.14 1.16 1.15 1.22 1.30 1.31 1.28 1.26 1.19 1.15 1.11 1.10 1.14 1.22 1.43 1.75
2.81 2.85 2.78 2.77 2.72 2.65 2.65 2.64 2.36 2.04 1.89 1.76 1.64 1.62 1.59 1.55 1.52 1.41 1.39 1.46 1.48 1.47 1.41 1.38 1.39 1.32 1.18 1.16 1.08 1.09 1.21 1.33 1.41 1.45 1.41 1.10 0.93 1.04 1.05 1.10 1.16 1.28 1.46
2.69 2.75 2.69 2.70 2.68 2.60 2.58 2.57 2.47 2.22 1.92 1.78 1.64 1.53 1.53 1.49 1.50 1.47 1.45 1.49 1.51 1.44 1.44 1.40 1.37 1.35 1.23 1.16 1.07 1.10 1.16 1.31 1.34 1.34 1.36 1.34 1.20 1.10 1.19 1.26 1.32 1.42 1.52
2.53 2.60 2.69 2.73 2.72 2.63 2.45 2.37 2.27 2.17 2.03 1.80 1.57 1.44 1.45 1.43 1.42 1.44 1.44 1.48 1.50 1.42 1.37 1.36 1.40 1.45 1.38 1.21 1.09 1.02 1.03 1.17 1.22 1.18 1.16 1.14 1.17 1.24 1.41 1.53 1.72 1.80 1.88
2.50 2.61 2.72 2.78 2.77 2.71 2.40 2.25 2.14 1.99 1.82 1.58 1.43 1.37 1.39 1.33 1.30 1.36 1.41 1.44 1.47 1.43 1.38 1.35 1.39 1.39 1.29 1.12 0.94 0.91 0.91 1.06 1.13 1.21 1.18 1.05 0.99 1.14 1.32 1.55 1.88 2.00 2.06
2.45 2.54 2.58 2.61 2.57 2.55 2.33 2.21 2.01 1.85 1.55 1.32 1.27 1.31 1.31 1.26 1.21 1.25 1.31 1.38 1.36 1.39 1.41 1.33 1.31 1.22 1.08 1.00 0.87 0.84 0.83 0.96 1.09 1.13 1.16 1.11 1.02 1.07 1.31 1.55 1.78 1.92 1.99
2.28 2.36 2.41 2.40 2.30 2.22 2.14 2.03 1.85 1.58 1.38 1.26 1.21 1.28 1.35 1.18 1.09 1.18 1.17 1.21 1.37 1.34 1.31 1.33 1.23 1.08 1.00 0.86 0.79 0.78 0.75 0.81 1.02 1.20 1.19 1.21 1.18 1.19 1.37 1.51 1.76 1.98 2.08
2.04 2.09 2.00 1.89 1.91 1.86 1.82 1.75 1.57 1.37 1.28 1.30 1.35 1.34 1.31 1.24 1.23 1.25 1.20 1.22 1.31 1.32 1.24 1.22 1.13 0.99 0.95 0.87 0.80 0.80 0.82 0.85 0.96 1.14 1.22 1.23 1.22 1.30 1.55 1.72 1.91 2.09 2.18
1.67 1.75 1.73 1.65 1.62 1.56 1.48 1.42 1.29 1.26 1.27 1.32 1.41 1.49 1.36 1.22 1.23 1.29 1.18 1.18 1.18 1.19 1.17 1.14 1.12 1.05 1.00 0.89 0.82 0.85 0.90 0.94 0.96 1.05 1.22 1.32 1.36 1.47 1.75 1.96 2.14 2.22 2.15
1.41 1.42 1.53 1.55 1.43 1.32 1.28 1.22 1.13 1.15 1.30 1.35 1.32 1.37 1.31 1.25 1.25 1.24 1.11 1.05 1.01 1.05 1.12 1.11 1.12 1.10 1.01 0.94 0.96 0.90 0.86 0.89 0.91 1.00 1.17 1.34 1.47 1.62 1.82 2.00 2.08 2.07 1.99
1.31 1.35 1.39 1.37 1.29 1.21 1.14 1.08 1.01 1.05 1.23 1.31 1.27 1.20 1.17 1.19 1.15 1.19 1.17 1.11 1.04 1.00 0.94 0.96 0.92 0.89 0.93 0.93 0.89 0.84 0.84 0.86 0.91 0.98 1.21 1.37 1.46 1.61 1.79 1.94 1.95 1.89 1.80